KAL211 RKPC-RKSS

Flight info

Callsign KAL211
Flight time N/A
Altitude 29000
Route KAMIT1W KAMIT Y722 OLMEN OLMEN2T
Aircraft B739/M-SDE2FGHIM3RWXY/LB1

Departure

Time N/A
Airport Jeju International Airport (RKPC)

Arrival

Time 2026-04-30 13:42
Airport Gimpo International Airport (RKSS)
Time Latitude Longitude Altitude Speed Heading
2026-04-30 13:29 37.42907 126.95691 3377 ft 202 kts 315°
2026-04-30 13:29 37.44802 126.93302 2852 ft 184 kts 315°
2026-04-30 13:30 37.47450 126.89958 2140 ft 173 kts 315°
2026-04-30 13:31 37.48492 126.88639 1837 ft 166 kts 315°
2026-04-30 13:31 37.50225 126.86455 1399 ft 139 kts 314°
2026-04-30 13:32 37.51585 126.84735 984 ft 143 kts 314°
2026-04-30 13:32 37.53030 126.82918 588 ft 149 kts 312°
2026-04-30 13:33 37.54493 126.81069 184 ft 148 kts 313°
2026-04-30 13:33 37.55875 126.79318 110 ft 154 kts 313°
2026-04-30 13:34 37.56676 126.78345 682 ft 168 kts 314°
2026-04-30 13:34 37.59158 126.75002 2526 ft 181 kts 305°
2026-04-30 13:35 37.59532 126.73408 2724 ft 207 kts 270°
2026-04-30 13:35 37.58005 126.70090 3531 ft 234 kts 231°
2026-04-30 13:36 37.55608 126.67244 3984 ft 242 kts 204°
2026-04-30 13:36 37.53959 126.66958 4001 ft 242 kts 172°
2026-04-30 13:36 37.51154 126.68970 4007 ft 222 kts 142°
2026-04-30 13:37 37.49996 126.70158 3904 ft 210 kts 137°
2026-04-30 13:37 37.47897 126.72725 3203 ft 212 kts 135°
2026-04-30 13:38 37.45798 126.75338 2535 ft 215 kts 136°
2026-04-30 13:38 37.44926 126.76860 2482 ft 211 kts 104°
2026-04-30 13:38 37.45474 126.79833 2387 ft 175 kts 51°
2026-04-30 13:39 37.46763 126.82429 2182 ft 177 kts 51°
2026-04-30 13:39 37.48110 126.84895 1658 ft 158 kts 32°
2026-04-30 13:40 37.48976 126.85606 1454 ft 147 kts 24°
2026-04-30 13:40 37.49908 126.85975 1144 ft 137 kts 352°
2026-04-30 13:40 37.50777 126.85590 997 ft 137 kts 324°
2026-04-30 13:40 37.51545 126.84787 820 ft 146 kts 314°
2026-04-30 13:41 37.52248 126.83900 756 ft 141 kts 314°
2026-04-30 13:41 37.52965 126.83003 617 ft 148 kts 313°
2026-04-30 13:41 37.53686 126.82085 424 ft 146 kts 313°
2026-04-30 13:41 37.54413 126.81174 215 ft 146 kts 313°
2026-04-30 13:42 37.55118 126.80287 64 ft 136 kts 313°
2026-04-30 13:42 37.55690 126.79562 61 ft 96 kts 315°
2026-04-30 13:42 37.56302 126.78975 63 ft 25 kts 354°
2026-04-30 13:43 37.56358 126.79012 64 ft 0 kts 68°
2026-04-30 13:43 37.56344 126.79044 60 ft 13 kts 137°
2026-04-30 13:43 37.56238 126.79168 66 ft 23 kts 134°
2026-04-30 13:43 37.56127 126.79310 66 ft 22 kts 135°
2026-04-30 13:44 37.56036 126.79423 61 ft 22 kts 135°
2026-04-30 13:44 37.55941 126.79579 66 ft 21 kts 104°
2026-04-30 13:44 37.55919 126.79760 59 ft 21 kts 98°
2026-04-30 13:44 37.55897 126.79935 66 ft 20 kts 100°
2026-04-30 13:45 37.55718 126.80184 64 ft 19 kts 134°
2026-04-30 13:45 37.55628 126.80298 64 ft 18 kts 138°
2026-04-30 13:45 37.55600 126.80392 62 ft 12 kts 49°
2026-04-30 13:46 37.55631 126.80431 64 ft 3 kts 44°
2026-04-30 13:46 37.55643 126.80446 62 ft 3 kts 45°
2026-04-30 13:46 37.55653 126.80458 66 ft 1 kts 45°
2026-04-30 13:46 37.55654 126.80460 66 ft 0 kts 45°